Year,Month,Day,Hour,Minute,Value (Times are PST for temperature in C)
2020,10,22,00,00,5.50
2020,10,22,00,01,5.50
2020,10,22,00,02,5.50
2020,10,22,00,03,5.50
2020,10,22,00,04,5.50
2020,10,22,00,05,5.50
2020,10,22,00,06,5.50
2020,10,22,00,07,5.50
2020,10,22,00,08,5.50
2020,10,22,00,09,5.50
2020,10,22,00,10,5.40
2020,10,22,00,11,5.50
2020,10,22,00,12,5.40
2020,10,22,00,13,5.40
2020,10,22,00,14,5.40
2020,10,22,00,15,5.40
2020,10,22,00,16,5.40
2020,10,22,00,17,5.40
2020,10,22,00,18,5.30
2020,10,22,00,19,5.30
2020,10,22,00,20,5.30
2020,10,22,00,21,5.30
2020,10,22,00,22,5.20
2020,10,22,00,23,5.20
2020,10,22,00,24,5.20
2020,10,22,00,25,5.20
2020,10,22,00,26,5.20
2020,10,22,00,27,5.20
2020,10,22,00,28,5.30
2020,10,22,00,29,5.30
2020,10,22,00,30,5.30
2020,10,22,00,31,5.30
2020,10,22,00,32,5.30
2020,10,22,00,33,5.30
2020,10,22,00,34,5.30
2020,10,22,00,35,5.30
2020,10,22,00,36,5.30
2020,10,22,00,37,5.30
2020,10,22,00,38,5.30
2020,10,22,00,39,5.30
2020,10,22,00,40,5.30
2020,10,22,00,41,5.30
2020,10,22,00,42,5.40
2020,10,22,00,43,5.40
2020,10,22,00,44,5.40
2020,10,22,00,45,5.40
2020,10,22,00,46,5.50
2020,10,22,00,47,5.50
2020,10,22,00,48,5.60
2020,10,22,00,49,5.60
2020,10,22,00,50,5.60
2020,10,22,00,51,5.60
2020,10,22,00,52,5.70
2020,10,22,00,53,5.80
2020,10,22,00,54,5.80
2020,10,22,00,55,5.90
2020,10,22,00,56,5.90
2020,10,22,00,57,5.90
2020,10,22,00,58,5.90
2020,10,22,00,59,5.90
2020,10,22,01,00,5.90
2020,10,22,01,01,5.90
2020,10,22,01,02,5.90
2020,10,22,01,03,6.00
2020,10,22,01,04,6.00
2020,10,22,01,05,6.00
2020,10,22,01,06,6.00
2020,10,22,01,07,6.00
2020,10,22,01,08,6.10
2020,10,22,01,09,6.10
2020,10,22,01,10,6.10
2020,10,22,01,11,6.10
2020,10,22,01,12,6.10
2020,10,22,01,13,6.20
2020,10,22,01,14,6.10
2020,10,22,01,15,6.20
2020,10,22,01,16,6.20
2020,10,22,01,17,6.20
2020,10,22,01,18,6.10
2020,10,22,01,19,6.10
2020,10,22,01,20,6.10
2020,10,22,01,21,6.10
2020,10,22,01,22,6.10
2020,10,22,01,23,6.00
2020,10,22,01,24,6.00
2020,10,22,01,25,6.00
2020,10,22,01,26,6.00
2020,10,22,01,27,6.00
2020,10,22,01,28,6.00
2020,10,22,01,29,6.00
2020,10,22,01,30,5.90
2020,10,22,01,31,5.90
2020,10,22,01,32,5.90
2020,10,22,01,33,5.90
2020,10,22,01,34,5.90
2020,10,22,01,35,5.90
2020,10,22,01,36,5.90
2020,10,22,01,37,5.80
2020,10,22,01,38,5.80
2020,10,22,01,39,5.80
2020,10,22,01,40,5.80
2020,10,22,01,41,5.80
2020,10,22,01,42,5.80
2020,10,22,01,43,5.70
2020,10,22,01,44,5.70
2020,10,22,01,45,5.70
2020,10,22,01,46,5.70
2020,10,22,01,47,5.60
2020,10,22,01,48,5.60
2020,10,22,01,49,5.60
2020,10,22,01,50,5.60
2020,10,22,01,51,5.60
2020,10,22,01,52,5.60
2020,10,22,01,53,5.50
2020,10,22,01,54,5.50
2020,10,22,01,55,5.50
2020,10,22,01,56,5.60
2020,10,22,01,57,5.60
2020,10,22,01,58,5.60
2020,10,22,01,59,5.60
2020,10,22,02,00,5.70
2020,10,22,02,01,5.70
2020,10,22,02,02,5.70
2020,10,22,02,03,5.70
2020,10,22,02,04,5.70
2020,10,22,02,05,5.70
2020,10,22,02,06,5.70
2020,10,22,02,07,5.70
2020,10,22,02,08,5.60
2020,10,22,02,09,5.60
2020,10,22,02,10,5.60
2020,10,22,02,11,5.60
2020,10,22,02,12,5.60
2020,10,22,02,13,5.60
2020,10,22,02,14,5.60
2020,10,22,02,15,5.60
2020,10,22,02,16,5.60
2020,10,22,02,17,5.60
2020,10,22,02,18,5.60
2020,10,22,02,19,5.60
2020,10,22,02,20,5.60
2020,10,22,02,21,5.60
2020,10,22,02,22,5.60
2020,10,22,02,23,5.60
2020,10,22,02,24,5.70
2020,10,22,02,25,5.70
2020,10,22,02,26,5.70
2020,10,22,02,27,5.70
2020,10,22,02,28,5.70
2020,10,22,02,29,5.70
2020,10,22,02,30,5.70
2020,10,22,02,31,5.70
2020,10,22,02,32,5.70
2020,10,22,02,33,5.70
2020,10,22,02,34,5.70
2020,10,22,02,35,5.70
2020,10,22,02,36,5.70
2020,10,22,02,37,5.70
2020,10,22,02,38,5.70
2020,10,22,02,39,5.70
2020,10,22,02,40,5.60
2020,10,22,02,41,5.70
2020,10,22,02,42,5.70
2020,10,22,02,43,5.70
2020,10,22,02,44,5.70
2020,10,22,02,45,5.70
2020,10,22,02,46,5.70
2020,10,22,02,47,5.70
2020,10,22,02,48,5.70
2020,10,22,02,49,5.70
2020,10,22,02,50,5.70
2020,10,22,02,51,5.70
2020,10,22,02,52,5.70
2020,10,22,02,53,5.70
2020,10,22,02,54,5.70
2020,10,22,02,55,5.70
2020,10,22,02,56,5.60
2020,10,22,02,57,5.60
2020,10,22,02,58,5.60
2020,10,22,02,59,5.60
2020,10,22,03,00,5.60
2020,10,22,03,01,5.60
2020,10,22,03,02,5.60
2020,10,22,03,03,5.60
2020,10,22,03,04,5.60
2020,10,22,03,05,5.60
2020,10,22,03,06,5.60
2020,10,22,03,07,5.60
2020,10,22,03,08,5.60
2020,10,22,03,09,5.60
2020,10,22,03,10,5.60
2020,10,22,03,11,5.50
2020,10,22,03,12,5.50
2020,10,22,03,13,5.50
2020,10,22,03,14,5.40
2020,10,22,03,15,5.40
2020,10,22,03,16,5.40
2020,10,22,03,17,5.40
2020,10,22,03,18,5.40
2020,10,22,03,19,5.30
2020,10,22,03,20,5.30
2020,10,22,03,21,5.30
2020,10,22,03,22,5.30
2020,10,22,03,23,5.30
2020,10,22,03,24,5.30
2020,10,22,03,25,5.20
2020,10,22,03,26,5.20
2020,10,22,03,27,5.20
2020,10,22,03,28,5.20
2020,10,22,03,29,5.20
2020,10,22,03,30,5.10
2020,10,22,03,31,5.10
2020,10,22,03,32,5.10
2020,10,22,03,33,5.10
2020,10,22,03,34,5.10
2020,10,22,03,35,5.10
2020,10,22,03,36,5.10
2020,10,22,03,37,5.10
2020,10,22,03,38,5.10
2020,10,22,03,39,5.00
2020,10,22,03,40,5.00
2020,10,22,03,41,5.00
2020,10,22,03,42,5.00
2020,10,22,03,43,4.90
2020,10,22,03,44,4.90
2020,10,22,03,45,4.90
2020,10,22,03,46,4.90
2020,10,22,03,47,4.90
2020,10,22,03,48,4.80
2020,10,22,03,49,4.80
2020,10,22,03,50,4.80
2020,10,22,03,51,4.80
2020,10,22,03,52,4.80
2020,10,22,03,53,4.80
2020,10,22,03,54,4.80
2020,10,22,03,55,4.80
2020,10,22,03,56,4.80
2020,10,22,03,57,4.80
2020,10,22,03,58,4.80
2020,10,22,03,59,4.80
2020,10,22,04,00,4.80
2020,10,22,04,01,4.80
2020,10,22,04,02,4.80
2020,10,22,04,03,4.80
2020,10,22,04,04,4.80
2020,10,22,04,05,4.80
2020,10,22,04,06,4.80
2020,10,22,04,07,4.80
2020,10,22,04,08,4.80
2020,10,22,04,09,4.80
2020,10,22,04,10,4.70
2020,10,22,04,11,4.70
2020,10,22,04,12,4.70
2020,10,22,04,13,4.70
2020,10,22,04,14,4.70
2020,10,22,04,15,4.70
2020,10,22,04,16,4.70
2020,10,22,04,17,4.70
2020,10,22,04,18,4.70
2020,10,22,04,19,4.70
2020,10,22,04,20,4.70
2020,10,22,04,21,4.70
2020,10,22,04,22,4.70
2020,10,22,04,23,4.70
2020,10,22,04,24,4.70
2020,10,22,04,25,4.70
2020,10,22,04,26,4.60
2020,10,22,04,27,4.60
2020,10,22,04,28,4.60
2020,10,22,04,29,4.60
2020,10,22,04,30,4.70
2020,10,22,04,31,4.70
2020,10,22,04,32,4.70
2020,10,22,04,33,4.70
2020,10,22,04,34,4.70
2020,10,22,04,35,4.70
2020,10,22,04,36,4.70
2020,10,22,04,37,4.60
2020,10,22,04,38,4.60
2020,10,22,04,39,4.60
2020,10,22,04,40,4.60
2020,10,22,04,41,4.60
2020,10,22,04,42,4.60
2020,10,22,04,43,4.60
2020,10,22,04,44,4.60
2020,10,22,04,45,4.60
2020,10,22,04,46,4.60
2020,10,22,04,47,4.60
2020,10,22,04,48,4.60
2020,10,22,04,49,4.50
2020,10,22,04,50,4.60
2020,10,22,04,51,4.50
2020,10,22,04,52,4.50
2020,10,22,04,53,4.50
2020,10,22,04,54,4.40
2020,10,22,04,55,4.40
2020,10,22,04,56,4.40
2020,10,22,04,57,4.40
2020,10,22,04,58,4.40
2020,10,22,04,59,4.30
2020,10,22,05,00,4.30
2020,10,22,05,01,4.30
2020,10,22,05,02,4.20
2020,10,22,05,03,4.20
2020,10,22,05,04,4.20
2020,10,22,05,05,4.10
2020,10,22,05,06,4.10
2020,10,22,05,07,4.10
2020,10,22,05,08,4.00
2020,10,22,05,09,4.00
2020,10,22,05,10,3.90
2020,10,22,05,11,3.90
2020,10,22,05,12,3.90
2020,10,22,05,13,3.80
2020,10,22,05,14,3.80
2020,10,22,05,15,3.80
2020,10,22,05,16,3.80
2020,10,22,05,17,3.70
2020,10,22,05,18,3.70
2020,10,22,05,19,3.70
2020,10,22,05,20,3.60
2020,10,22,05,21,3.60
2020,10,22,05,22,3.60
2020,10,22,05,23,3.60
2020,10,22,05,24,3.50
2020,10,22,05,25,3.50
2020,10,22,05,26,3.50
2020,10,22,05,27,3.50
2020,10,22,05,28,3.50
2020,10,22,05,29,3.50
2020,10,22,05,30,3.50
2020,10,22,05,31,3.50
2020,10,22,05,32,3.60
2020,10,22,05,33,3.60
2020,10,22,05,34,3.60
2020,10,22,05,35,3.60
2020,10,22,05,36,3.60
2020,10,22,05,37,3.60
2020,10,22,05,38,3.60
2020,10,22,05,39,3.60
2020,10,22,05,40,3.60
2020,10,22,05,41,3.50
2020,10,22,05,42,3.50
2020,10,22,05,43,3.50
2020,10,22,05,44,3.40
2020,10,22,05,45,3.40
2020,10,22,05,46,3.40
2020,10,22,05,47,3.40
2020,10,22,05,48,3.30
2020,10,22,05,49,3.30
2020,10,22,05,50,3.30
2020,10,22,05,51,3.30
2020,10,22,05,52,3.20
2020,10,22,05,53,3.20
2020,10,22,05,54,3.20
2020,10,22,05,55,3.10
2020,10,22,05,56,3.10
2020,10,22,05,57,3.10
2020,10,22,05,58,3.00
2020,10,22,05,59,3.00
2020,10,22,06,00,2.90
2020,10,22,06,01,2.90
2020,10,22,06,02,2.80
2020,10,22,06,03,2.80
2020,10,22,06,04,2.80
2020,10,22,06,05,2.70
2020,10,22,06,06,2.70
2020,10,22,06,07,2.70
2020,10,22,06,08,2.70
2020,10,22,06,09,2.60
2020,10,22,06,10,2.60
2020,10,22,06,11,2.60
2020,10,22,06,12,2.60
2020,10,22,06,13,2.50
2020,10,22,06,14,2.50
2020,10,22,06,15,2.50
2020,10,22,06,16,2.50
2020,10,22,06,17,2.50
2020,10,22,06,18,2.40
2020,10,22,06,19,2.50
2020,10,22,06,20,2.50
2020,10,22,06,21,2.50
2020,10,22,06,22,2.50
2020,10,22,06,23,2.50
2020,10,22,06,24,2.50
2020,10,22,06,25,2.50
2020,10,22,06,26,2.50
2020,10,22,06,27,2.50
2020,10,22,06,28,2.50
2020,10,22,06,29,2.50
2020,10,22,06,30,2.50
2020,10,22,06,31,2.40
2020,10,22,06,32,2.40
2020,10,22,06,33,2.40
2020,10,22,06,34,2.40
2020,10,22,06,35,2.40
2020,10,22,06,36,2.50
2020,10,22,06,37,2.50
2020,10,22,06,38,2.50
2020,10,22,06,39,2.50
2020,10,22,06,40,2.50
2020,10,22,06,41,2.50
2020,10,22,06,42,2.50
2020,10,22,06,43,2.50
2020,10,22,06,44,2.50
2020,10,22,06,45,2.50
2020,10,22,06,46,2.60
2020,10,22,06,47,2.60
2020,10,22,06,48,2.60
2020,10,22,06,49,2.60
2020,10,22,06,50,2.60
2020,10,22,06,51,2.60
2020,10,22,06,52,2.60
2020,10,22,06,53,2.60
2020,10,22,06,54,2.60
2020,10,22,06,55,2.60
2020,10,22,06,56,2.50
2020,10,22,06,57,2.50
2020,10,22,06,58,2.50
2020,10,22,06,59,2.40
2020,10,22,07,00,2.40
2020,10,22,07,01,2.30
2020,10,22,07,02,2.30
2020,10,22,07,03,2.30
2020,10,22,07,04,2.30
2020,10,22,07,05,2.30
2020,10,22,07,06,2.30
2020,10,22,07,07,2.20
2020,10,22,07,08,2.20
2020,10,22,07,09,2.20
2020,10,22,07,10,2.20
2020,10,22,07,11,2.20
2020,10,22,07,12,2.20
2020,10,22,07,13,2.20
2020,10,22,07,14,2.20
2020,10,22,07,15,2.20
2020,10,22,07,16,2.10
2020,10,22,07,17,2.10
2020,10,22,07,18,2.10
2020,10,22,07,19,2.10
2020,10,22,07,20,2.00
2020,10,22,07,21,2.00
2020,10,22,07,22,2.00
2020,10,22,07,23,1.90
2020,10,22,07,24,1.90
2020,10,22,07,25,1.90
2020,10,22,07,26,1.90
2020,10,22,07,27,1.80
2020,10,22,07,28,1.80
2020,10,22,07,29,1.80
2020,10,22,07,30,1.80
2020,10,22,07,31,1.70
2020,10,22,07,32,1.70
2020,10,22,07,33,1.70
2020,10,22,07,34,1.60
2020,10,22,07,35,1.60
2020,10,22,07,36,1.60
2020,10,22,07,37,1.50
2020,10,22,07,38,1.50
2020,10,22,07,39,1.50
2020,10,22,07,40,1.50
2020,10,22,07,41,1.50
2020,10,22,07,42,1.40
2020,10,22,07,43,1.40
2020,10,22,07,44,1.40
2020,10,22,07,45,1.40
2020,10,22,07,46,1.30
2020,10,22,07,47,1.30
2020,10,22,07,48,1.30
2020,10,22,07,49,1.30
2020,10,22,07,50,1.30
2020,10,22,07,51,1.30
2020,10,22,07,52,1.20
2020,10,22,07,53,1.20
2020,10,22,07,54,1.20
2020,10,22,07,55,1.20
2020,10,22,07,56,1.10
2020,10,22,07,57,1.10
2020,10,22,07,58,1.10
2020,10,22,07,59,1.00
2020,10,22,08,00,1.00
2020,10,22,08,01,1.00
2020,10,22,08,02,0.90
2020,10,22,08,03,0.90
2020,10,22,08,04,0.90
2020,10,22,08,05,0.90
2020,10,22,08,06,0.90
2020,10,22,08,07,0.80
2020,10,22,08,08,0.80
2020,10,22,08,09,0.80
2020,10,22,08,10,0.80
2020,10,22,08,11,0.80
2020,10,22,08,12,0.80
2020,10,22,08,13,0.80
2020,10,22,08,14,0.70
2020,10,22,08,15,0.70
2020,10,22,08,16,0.70
2020,10,22,08,17,0.70
2020,10,22,08,18,0.70
2020,10,22,08,19,0.70
2020,10,22,08,20,0.70
2020,10,22,08,21,0.70
2020,10,22,08,22,0.70
2020,10,22,08,23,0.70
2020,10,22,08,24,0.70
2020,10,22,08,25,0.60
2020,10,22,08,26,0.60
2020,10,22,08,27,0.60
2020,10,22,08,28,0.60
2020,10,22,08,29,0.60
2020,10,22,08,30,0.60
2020,10,22,08,31,0.60
2020,10,22,08,32,0.60
2020,10,22,08,33,0.60
2020,10,22,08,34,0.60
2020,10,22,08,35,0.60
2020,10,22,08,36,0.60
2020,10,22,08,37,0.60
2020,10,22,08,38,0.60
2020,10,22,08,39,0.60
2020,10,22,08,40,0.60
2020,10,22,08,41,0.60
2020,10,22,08,42,0.60
2020,10,22,08,43,0.60
2020,10,22,08,44,0.60
2020,10,22,08,45,0.60
2020,10,22,08,46,0.60
2020,10,22,08,47,0.70
2020,10,22,08,48,0.70
2020,10,22,08,49,0.70
2020,10,22,08,50,0.70
2020,10,22,08,51,0.70
2020,10,22,08,52,0.70
2020,10,22,08,53,0.80
2020,10,22,08,54,0.80
2020,10,22,08,55,0.80
2020,10,22,08,56,0.80
2020,10,22,08,57,0.80
2020,10,22,08,58,0.80
2020,10,22,08,59,0.90
2020,10,22,09,00,0.90
2020,10,22,09,01,0.90
2020,10,22,09,02,0.90
2020,10,22,09,03,1.00
2020,10,22,09,04,1.00
2020,10,22,09,05,1.10
2020,10,22,09,06,1.10
2020,10,22,09,07,1.10
2020,10,22,09,08,1.10
2020,10,22,09,09,1.20
2020,10,22,09,10,1.20
2020,10,22,09,11,1.20
2020,10,22,09,12,1.30
2020,10,22,09,13,1.30
2020,10,22,09,14,1.40
2020,10,22,09,15,1.40
2020,10,22,09,16,1.50
2020,10,22,09,17,1.50
2020,10,22,09,18,1.60
2020,10,22,09,19,1.60
2020,10,22,09,20,1.60
2020,10,22,09,21,1.70
2020,10,22,09,22,1.70
2020,10,22,09,23,1.70
2020,10,22,09,24,1.80
2020,10,22,09,25,1.80
2020,10,22,09,26,1.80
2020,10,22,09,27,1.90
2020,10,22,09,28,1.90
2020,10,22,09,29,1.90
2020,10,22,09,30,2.00
2020,10,22,09,31,2.00
2020,10,22,09,32,2.10
2020,10,22,09,33,2.10
2020,10,22,09,34,2.10
2020,10,22,09,35,2.20
2020,10,22,09,36,2.20
2020,10,22,09,37,2.20
2020,10,22,09,38,2.30
2020,10,22,09,39,2.30
2020,10,22,09,40,2.30
2020,10,22,09,41,2.40
2020,10,22,09,42,2.40
2020,10,22,09,43,2.50
2020,10,22,09,44,2.50
2020,10,22,09,45,2.50
2020,10,22,09,46,2.60
2020,10,22,09,47,2.70
2020,10,22,09,48,2.70
2020,10,22,09,49,2.80
2020,10,22,09,50,2.90
2020,10,22,09,51,3.00
2020,10,22,09,52,3.10
2020,10,22,09,53,3.10
2020,10,22,09,54,3.20
2020,10,22,09,55,3.30
2020,10,22,09,56,3.30
2020,10,22,09,57,3.40
2020,10,22,09,58,3.50
2020,10,22,09,59,3.60
2020,10,22,10,00,3.60
2020,10,22,10,01,3.70
2020,10,22,10,02,3.80
2020,10,22,10,03,3.80
2020,10,22,10,04,3.90
2020,10,22,10,05,4.00
2020,10,22,10,06,4.10
2020,10,22,10,07,4.20
2020,10,22,10,08,4.30
2020,10,22,10,09,4.40
2020,10,22,10,10,4.50
2020,10,22,10,11,4.60
2020,10,22,10,12,4.80
2020,10,22,10,13,4.90
2020,10,22,10,14,5.00
2020,10,22,10,15,5.20
2020,10,22,10,16,5.30
2020,10,22,10,17,5.40
2020,10,22,10,18,5.60
2020,10,22,10,19,5.60
2020,10,22,10,20,5.80
2020,10,22,10,21,5.90
2020,10,22,10,22,6.00
2020,10,22,10,23,6.10
2020,10,22,10,24,6.20
2020,10,22,10,25,6.30
2020,10,22,10,26,6.40
2020,10,22,10,27,6.50
2020,10,22,10,28,6.60
2020,10,22,10,29,6.70
2020,10,22,10,30,6.80
2020,10,22,10,31,6.80
2020,10,22,10,32,6.90
2020,10,22,10,33,7.00
2020,10,22,10,34,7.00
2020,10,22,10,35,7.10
2020,10,22,10,36,7.20
2020,10,22,10,37,7.20
2020,10,22,10,38,7.30
2020,10,22,10,39,7.30
2020,10,22,10,40,7.40
2020,10,22,10,41,7.40
2020,10,22,10,42,7.50
2020,10,22,10,43,7.50
2020,10,22,10,44,7.50
2020,10,22,10,45,7.60
2020,10,22,10,46,7.60
2020,10,22,10,47,7.70
2020,10,22,10,48,7.70
2020,10,22,10,49,7.70
2020,10,22,10,50,7.80
2020,10,22,10,51,7.90
2020,10,22,10,52,7.90
2020,10,22,10,53,8.00
2020,10,22,10,54,8.10
2020,10,22,10,55,8.20
2020,10,22,10,56,8.20
2020,10,22,10,57,8.20
2020,10,22,10,58,8.30
2020,10,22,10,59,8.30
2020,10,22,11,00,8.30
2020,10,22,11,01,8.30
2020,10,22,11,02,8.30
2020,10,22,11,03,8.30
2020,10,22,11,04,8.30
2020,10,22,11,05,8.30
2020,10,22,11,06,8.40
2020,10,22,11,07,8.40
2020,10,22,11,08,8.40
2020,10,22,11,09,8.40
2020,10,22,11,10,8.50
2020,10,22,11,11,8.50
2020,10,22,11,12,8.50
2020,10,22,11,13,8.50
2020,10,22,11,14,8.60
2020,10,22,11,15,8.60
2020,10,22,11,16,8.60
2020,10,22,11,17,8.60
2020,10,22,11,18,8.60
2020,10,22,11,19,8.60
2020,10,22,11,20,8.70
2020,10,22,11,21,8.70
2020,10,22,11,22,8.70
2020,10,22,11,23,8.70
2020,10,22,11,24,8.70
2020,10,22,11,25,8.70
2020,10,22,11,26,8.70
2020,10,22,11,27,8.70
2020,10,22,11,28,8.80
2020,10,22,11,29,8.80
2020,10,22,11,30,8.80
2020,10,22,11,31,8.80
2020,10,22,11,32,8.80
2020,10,22,11,33,8.80
2020,10,22,11,34,8.80
2020,10,22,11,35,8.80
2020,10,22,11,36,8.80
2020,10,22,11,37,8.70
2020,10,22,11,38,8.60
2020,10,22,11,39,8.60
2020,10,22,11,40,8.60
2020,10,22,11,41,8.60
2020,10,22,11,42,8.60
2020,10,22,11,43,8.60
2020,10,22,11,44,8.60
2020,10,22,11,45,8.60
2020,10,22,11,46,8.60
2020,10,22,11,47,8.70
2020,10,22,11,48,8.70
2020,10,22,11,49,8.70
2020,10,22,11,50,8.70
2020,10,22,11,51,8.70
2020,10,22,11,52,8.80
2020,10,22,11,53,8.80
2020,10,22,11,54,8.80
2020,10,22,11,55,8.80
2020,10,22,11,56,8.80
2020,10,22,11,57,8.80
2020,10,22,11,58,8.80
2020,10,22,11,59,8.80
2020,10,22,12,00,8.80
2020,10,22,12,01,8.80
2020,10,22,12,02,8.80
2020,10,22,12,03,8.90
2020,10,22,12,04,8.90
2020,10,22,12,05,8.90
2020,10,22,12,06,8.90
2020,10,22,12,07,8.90
2020,10,22,12,08,8.90
2020,10,22,12,09,8.90
2020,10,22,12,10,8.90
2020,10,22,12,11,9.00
2020,10,22,12,12,9.10
2020,10,22,12,13,9.10
2020,10,22,12,14,9.10
2020,10,22,12,15,9.10
2020,10,22,12,16,9.10
2020,10,22,12,17,9.10
2020,10,22,12,18,9.00
2020,10,22,12,19,9.00
2020,10,22,12,20,8.90
2020,10,22,12,21,8.90
2020,10,22,12,22,8.90
2020,10,22,12,23,8.90
2020,10,22,12,24,8.90
2020,10,22,12,25,8.90
2020,10,22,12,26,9.00
2020,10,22,12,27,9.00
2020,10,22,12,28,9.00
2020,10,22,12,29,8.90
2020,10,22,12,30,8.90
2020,10,22,12,31,8.90
2020,10,22,12,32,8.90
2020,10,22,12,33,8.90
2020,10,22,12,34,8.80
2020,10,22,12,35,8.80
2020,10,22,12,36,8.80
2020,10,22,12,37,8.80
2020,10,22,12,38,8.90
2020,10,22,12,39,8.90
2020,10,22,12,40,8.90
2020,10,22,12,41,8.90
2020,10,22,12,42,8.90
2020,10,22,12,43,8.90
2020,10,22,12,44,8.90
2020,10,22,12,45,8.90
2020,10,22,12,46,8.90
2020,10,22,12,47,8.90
2020,10,22,12,48,8.90
2020,10,22,12,49,8.90
2020,10,22,12,50,8.90
2020,10,22,12,51,8.90
2020,10,22,12,52,8.90
2020,10,22,12,53,8.90
2020,10,22,12,54,9.00
2020,10,22,12,55,9.00
2020,10,22,12,56,9.00
2020,10,22,12,57,9.00
2020,10,22,12,58,9.10
2020,10,22,12,59,9.10
2020,10,22,13,00,9.10
2020,10,22,13,01,9.20
2020,10,22,13,02,9.20
2020,10,22,13,03,9.20
2020,10,22,13,04,9.20
2020,10,22,13,05,9.20
2020,10,22,13,06,9.20
2020,10,22,13,07,9.20
2020,10,22,13,08,9.20
2020,10,22,13,09,9.20
2020,10,22,13,10,9.10
2020,10,22,13,11,9.10
2020,10,22,13,12,9.00
2020,10,22,13,13,9.00
2020,10,22,13,14,9.00
2020,10,22,13,15,9.00
2020,10,22,13,16,9.00
2020,10,22,13,17,9.00
2020,10,22,13,18,8.90
2020,10,22,13,19,8.90
2020,10,22,13,20,8.90
2020,10,22,13,21,8.90
2020,10,22,13,22,8.90
2020,10,22,13,23,8.90
2020,10,22,13,24,8.90
2020,10,22,13,25,8.90
2020,10,22,13,26,8.90
2020,10,22,13,27,8.90
2020,10,22,13,28,8.90
2020,10,22,13,29,8.90
2020,10,22,13,30,8.90
2020,10,22,13,31,8.90
2020,10,22,13,32,8.90
2020,10,22,13,33,8.90
2020,10,22,13,34,8.90
2020,10,22,13,35,9.00
2020,10,22,13,36,9.00
2020,10,22,13,37,9.10
2020,10,22,13,38,9.10
2020,10,22,13,39,9.10
2020,10,22,13,40,9.10
2020,10,22,13,41,9.10
2020,10,22,13,42,9.10
2020,10,22,13,43,9.10
2020,10,22,13,44,9.10
2020,10,22,13,45,9.10
2020,10,22,13,46,9.10
2020,10,22,13,47,9.10
2020,10,22,13,48,9.10
2020,10,22,13,49,9.10
2020,10,22,13,50,9.10
2020,10,22,13,51,9.20
2020,10,22,13,52,9.10
2020,10,22,13,53,9.20
2020,10,22,13,54,9.20
2020,10,22,13,55,9.10
2020,10,22,13,56,9.10
2020,10,22,13,57,9.10
2020,10,22,13,58,9.20
2020,10,22,13,59,9.10
2020,10,22,14,00,9.10
2020,10,22,14,01,9.10
2020,10,22,14,02,9.10
2020,10,22,14,03,9.00
2020,10,22,14,04,9.00
2020,10,22,14,05,9.00
2020,10,22,14,06,9.00
2020,10,22,14,07,9.00
2020,10,22,14,08,8.90
2020,10,22,14,09,8.90
2020,10,22,14,10,8.90
2020,10,22,14,11,8.90
2020,10,22,14,12,8.80
2020,10,22,14,13,8.80
2020,10,22,14,14,8.80
2020,10,22,14,15,8.80
2020,10,22,14,16,8.80
2020,10,22,14,17,8.80
2020,10,22,14,18,8.80
2020,10,22,14,19,8.80
2020,10,22,14,20,8.80
2020,10,22,14,21,8.80
2020,10,22,14,22,8.80
2020,10,22,14,23,8.90
2020,10,22,14,24,8.90
2020,10,22,14,25,8.90
2020,10,22,14,26,8.90
2020,10,22,14,27,8.90
2020,10,22,14,28,8.90
2020,10,22,14,29,8.90
2020,10,22,14,30,8.90
2020,10,22,14,31,8.90
2020,10,22,14,32,8.90
2020,10,22,14,33,8.90
2020,10,22,14,34,8.90
2020,10,22,14,35,8.90
2020,10,22,14,36,8.90
2020,10,22,14,37,9.00
2020,10,22,14,38,9.00
2020,10,22,14,39,9.00
2020,10,22,14,40,9.00
2020,10,22,14,41,9.00
2020,10,22,14,42,8.90
2020,10,22,14,43,8.90
2020,10,22,14,44,8.90
2020,10,22,14,45,8.90
2020,10,22,14,46,8.80
2020,10,22,14,47,8.80
2020,10,22,14,48,8.80
2020,10,22,14,49,8.70
2020,10,22,14,50,8.70
2020,10,22,14,51,8.70
2020,10,22,14,52,8.70
2020,10,22,14,53,8.70
2020,10,22,14,54,8.70
2020,10,22,14,55,8.70
2020,10,22,14,56,8.60
2020,10,22,14,57,8.70
2020,10,22,14,58,8.60
2020,10,22,14,59,8.60
2020,10,22,15,00,8.60
2020,10,22,15,01,8.60
2020,10,22,15,02,8.60
2020,10,22,15,03,8.60
2020,10,22,15,04,8.60
2020,10,22,15,05,8.60
2020,10,22,15,06,8.60
2020,10,22,15,07,8.60
2020,10,22,15,08,8.60
2020,10,22,15,09,8.60
2020,10,22,15,10,8.60
2020,10,22,15,11,8.60
2020,10,22,15,12,8.60
2020,10,22,15,13,8.60
2020,10,22,15,14,8.60
2020,10,22,15,15,8.60
2020,10,22,15,16,8.60
2020,10,22,15,17,8.60
2020,10,22,15,18,8.60
2020,10,22,15,19,8.60
2020,10,22,15,20,8.60
2020,10,22,15,21,8.60
2020,10,22,15,22,8.60
2020,10,22,15,23,8.60
2020,10,22,15,24,8.60
2020,10,22,15,25,8.60
2020,10,22,15,26,8.60
2020,10,22,15,27,8.60
2020,10,22,15,28,8.70
2020,10,22,15,29,8.70
2020,10,22,15,30,8.70
2020,10,22,15,31,8.80
2020,10,22,15,32,8.80
2020,10,22,15,33,8.80
2020,10,22,15,34,8.80
2020,10,22,15,35,8.80
2020,10,22,15,36,8.80
2020,10,22,15,37,8.80
2020,10,22,15,38,8.90
2020,10,22,15,39,8.90
2020,10,22,15,40,8.90
2020,10,22,15,41,8.90
2020,10,22,15,42,8.90
2020,10,22,15,43,8.90
2020,10,22,15,44,8.90
2020,10,22,15,45,8.90
2020,10,22,15,46,8.90
2020,10,22,15,47,8.90
2020,10,22,15,48,8.90
2020,10,22,15,49,8.90
2020,10,22,15,50,8.90
2020,10,22,15,51,8.90
2020,10,22,15,52,8.90
2020,10,22,15,53,8.90
2020,10,22,15,54,8.90
2020,10,22,15,55,8.90
2020,10,22,15,56,8.90
2020,10,22,15,57,8.90
2020,10,22,15,58,8.90
2020,10,22,15,59,8.90
2020,10,22,16,00,8.90
2020,10,22,16,01,8.90
2020,10,22,16,02,8.90
2020,10,22,16,03,8.90
2020,10,22,16,04,8.90
2020,10,22,16,05,8.90
2020,10,22,16,06,8.90
2020,10,22,16,07,8.90
2020,10,22,16,08,8.90
2020,10,22,16,09,8.90
2020,10,22,16,10,8.90
2020,10,22,16,11,8.90
2020,10,22,16,12,8.90
2020,10,22,16,13,8.90
2020,10,22,16,14,8.90
2020,10,22,16,15,8.90
2020,10,22,16,16,8.90
2020,10,22,16,17,8.90
2020,10,22,16,18,8.90
2020,10,22,16,19,8.90
2020,10,22,16,20,8.90
2020,10,22,16,21,8.90
2020,10,22,16,22,8.90
2020,10,22,16,23,8.90
2020,10,22,16,24,8.90
2020,10,22,16,25,8.90
2020,10,22,16,26,8.90
2020,10,22,16,27,8.90
2020,10,22,16,28,8.90
2020,10,22,16,29,8.90
2020,10,22,16,30,8.90
2020,10,22,16,31,8.90
2020,10,22,16,32,8.90
2020,10,22,16,33,8.90
2020,10,22,16,34,8.90
2020,10,22,16,35,8.90
2020,10,22,16,36,8.90
2020,10,22,16,37,8.90
2020,10,22,16,38,8.90
2020,10,22,16,39,8.90
2020,10,22,16,40,8.90
2020,10,22,16,41,9.00
2020,10,22,16,42,9.00
2020,10,22,16,43,9.00
2020,10,22,16,44,9.00
2020,10,22,16,45,9.00
2020,10,22,16,46,9.00
2020,10,22,16,47,9.00
2020,10,22,16,48,9.00
2020,10,22,16,49,9.00
2020,10,22,16,50,9.00
2020,10,22,16,51,9.00
2020,10,22,16,52,9.00
2020,10,22,16,53,9.00
2020,10,22,16,54,9.00
2020,10,22,16,55,9.00
2020,10,22,16,56,9.00
2020,10,22,16,57,9.00
2020,10,22,16,58,9.00
2020,10,22,16,59,9.00
2020,10,22,17,00,9.00
2020,10,22,17,01,9.00
2020,10,22,17,02,9.00
2020,10,22,17,03,9.00
2020,10,22,17,04,9.00
2020,10,22,17,05,9.00
2020,10,22,17,06,9.00
2020,10,22,17,07,9.00
2020,10,22,17,08,8.90
2020,10,22,17,09,8.90
2020,10,22,17,10,8.90
2020,10,22,17,11,8.90
2020,10,22,17,12,8.90
2020,10,22,17,13,8.90
2020,10,22,17,14,8.90
2020,10,22,17,15,8.90
2020,10,22,17,16,8.90
2020,10,22,17,17,8.90
2020,10,22,17,18,8.80
2020,10,22,17,19,8.80
2020,10,22,17,20,8.80
2020,10,22,17,21,8.80
2020,10,22,17,22,8.80
2020,10,22,17,23,8.80
2020,10,22,17,24,8.80
2020,10,22,17,25,8.80
2020,10,22,17,26,8.80
2020,10,22,17,27,8.80
2020,10,22,17,28,8.80
2020,10,22,17,29,8.80
2020,10,22,17,30,8.80
2020,10,22,17,31,8.80
2020,10,22,17,32,8.70
2020,10,22,17,33,8.70
2020,10,22,17,34,8.70
2020,10,22,17,35,8.70
2020,10,22,17,36,8.70
2020,10,22,17,37,8.70
2020,10,22,17,38,8.70
2020,10,22,17,39,8.70
2020,10,22,17,40,8.70
2020,10,22,17,41,8.70
2020,10,22,17,42,8.70
2020,10,22,17,43,8.60
2020,10,22,17,44,8.60
2020,10,22,17,45,8.60
2020,10,22,17,46,8.60
2020,10,22,17,47,8.60
2020,10,22,17,48,8.60
2020,10,22,17,49,8.60
2020,10,22,17,50,8.60
2020,10,22,17,51,8.50
2020,10,22,17,52,8.50
2020,10,22,17,53,8.50
2020,10,22,17,54,8.40
2020,10,22,17,55,8.40
2020,10,22,17,56,8.40
2020,10,22,17,57,8.30
2020,10,22,17,58,8.30
2020,10,22,17,59,8.30
2020,10,22,18,00,8.30
2020,10,22,18,01,8.20
2020,10,22,18,02,8.20
2020,10,22,18,03,8.20
2020,10,22,18,04,8.20
2020,10,22,18,05,8.20
2020,10,22,18,06,8.10